GEFSGL_500_meanwind_156.txt.gz
Wind_Speed
15 13 12 10 9 7 6 5 4 4 3 3 3 3 3 3 3 3 4 4 4 4 5 4 5 5 5 5 5 5 5 5 5 5 6 7 7 8 8 8 8 9 10
16 15 13 12 10 9 8 7 5 4 4 3 3 2 2 2 2 2 3 3 3 3 4 4 4 5 5 5 5 5 6 6 6 7 8 8 9 9 9 9 10 11 12
18 17 15 13 12 11 10 8 7 6 4 4 3 2 1 1 1 1 1 2 2 3 3 4 4 5 5 6 6 6 7 7 8 9 9 9 10 9 10 11 12 13 14
19 18 16 15 14 12 11 10 9 7 6 5 4 3 3 2 2 2 2 2 3 3 4 4 5 6 6 7 7 7 8 9 10 10 11 11 11 12 12 14 15 16 16
20 19 18 16 15 14 13 12 10 9 7 6 6 5 5 4 4 4 4 4 5 5 5 5 6 7 7 8 9 9 10 10 11 12 13 13 14 14 15 16 17 18 19
20 20 19 18 16 16 15 13 12 11 9 8 8 7 6 6 6 6 6 6 6 7 7 7 8 9 9 10 11 11 12 13 14 15 15 16 17 17 18 19 20 21 22
21 21 20 19 17 16 16 14 13 12 11 10 10 9 9 9 8 8 8 8 8 9 9 9 10 11 11 12 13 13 14 15 16 17 18 18 19 20 20 21 22 23 24
21 21 21 20 19 18 17 16 14 13 13 12 11 11 10 10 10 9 10 10 10 11 11 12 13 13 14 14 15 15 16 17 18 18 19 20 21 22 23 24 25 26 27
22 21 21 20 19 18 17 16 16 15 14 13 13 12 12 12 12 12 12 12 12 12 13 14 15 15 16 17 17 18 19 19 20 21 22 22 24 25 26 27 28 29 29
22 22 22 21 21 20 18 17 16 15 15 15 14 14 14 14 14 14 14 14 14 15 15 16 17 17 18 19 20 21 21 22 23 24 24 25 26 28 29 30 31 31 33
22 22 22 22 21 21 20 19 18 17 16 16 16 16 15 15 16 16 16 16 16 17 18 18 19 20 20 21 22 23 24 25 25 26 27 28 29 31 32 33 34 34 35
22 22 21 22 21 21 20 20 20 19 18 18 18 18 18 17 17 17 18 18 19 19 20 21 21 22 23 23 24 25 26 27 28 29 30 31 32 33 34 35 36 37 38
21 22 21 21 21 21 20 20 20 20 20 19 19 19 19 19 19 20 20 20 21 21 22 23 23 24 24 25 26 27 29 30 31 31 32 33 34 35 36 36 37 39 40
21 21 21 21 21 22 22 22 22 22 21 21 21 21 21 21 21 21 22 23 23 24 24 25 25 26 26 27 28 30 31 32 33 33 34 35 36 37 37 39 40 41 42
21 21 22 22 22 23 23 23 23 23 23 23 23 23 23 23 23 24 24 25 26 26 27 27 27 28 29 30 30 32 33 34 35 35 36 37 39 39 40 41 43 44 45
21 22 23 23 24 24 24 24 25 24 24 24 24 24 24 25 25 26 27 27 28 28 29 29 29 30 31 32 33 34 35 36 36 37 38 39 40 41 42 43 45 46 46
22 23 23 24 24 24 24 24 24 24 25 25 25 25 26 26 26 27 28 28 29 30 31 31 32 33 34 34 35 36 37 37 38 39 40 41 42 43 45 46 46 47 48
23 23 23 24 24 25 25 24 24 25 25 26 27 27 27 27 28 29 29 30 31 32 33 34 34 35 35 36 37 38 39 39 40 41 42 43 44 45 46 47 48 48 49
22 23 23 23 24 24 25 25 25 26 27 27 28 29 29 30 30 31 32 32 33 34 35 36 36 37 38 38 39 40 41 42 43 44 45 46 47 47 48 48 49 50 51
22 23 24 24 25 25 26 26 27 28 28 29 29 30 31 31 32 32 33 34 35 35 36 37 38 39 40 41 41 42 43 44 45 46 47 48 48 49 49 50 51 52 53
23 24 24 25 25 26 26 27 28 29 29 30 31 31 32 33 33 34 35 36 36 37 38 39 40 40 41 42 43 44 45 46 47 48 48 49 49 50 50 51 52 53 55
24 25 25 26 27 27 28 28 28 29 30 31 32 32 33 34 34 35 36 37 38 39 40 41 42 43 44 44 45 46 47 48 49 49 50 50 51 51 51 52 54 55 56
26 26 26 27 28 29 29 30 30 31 31 32 33 33 34 35 36 37 38 39 40 41 42 43 44 45 46 47 48 49 49 50 50 51 52 52 52 53 54 55 56 57 58
27 28 28 29 29 29 30 30 31 32 33 34 35 35 36 36 38 39 40 41 42 43 44 45 46 47 48 49 49 50 51 51 52 53 53 54 54 55 56 57 58 59 59
28 29 29 29 30 30 31 31 32 33 34 35 36 37 38 39 40 41 42 43 44 45 45 46 47 49 49 50 50 51 52 53 54 54 55 55 56 56 57 58 59 59 60
30 30 30 30 31 32 32 33 34 34 35 36 38 39 40 41 42 43 44 44 45 46 47 48 49 50 50 51 51 52 53 53 54 55 56 56 57 57 58 59 60 61 60

GEFSGL_500_meanwind_162.txt.gz
Wind_Speed
12 11 10 8 7 6 5 3 2 1 1 1 0 1 1 2 2 2 3 3 3 4 4 4 4 4 5 6 6 6 6 6 7 7 7 8 8 9 9 9 10 11 11
13 12 11 10 9 8 7 6 4 3 2 1 1 1 1 1 1 2 2 2 3 3 3 4 4 5 5 5 6 6 7 7 8 8 8 9 10 10 10 11 11 12 12
15 13 12 12 11 10 8 7 6 5 4 3 3 2 1 1 1 2 2 2 2 3 3 4 5 5 5 6 6 7 7 8 8 9 9 10 11 11 12 13 14 14 14
16 14 13 12 12 11 10 9 8 7 6 5 4 4 3 2 3 3 3 3 3 4 4 5 5 5 6 7 7 8 9 9 10 10 11 12 12 13 14 15 15 16 16
17 16 15 14 14 13 12 11 10 9 8 7 6 6 5 5 5 5 5 5 5 6 6 6 6 7 7 8 9 10 11 11 12 12 13 14 14 15 16 16 17 18 19
18 18 16 16 15 15 14 13 12 11 10 9 8 7 7 6 6 6 6 7 7 7 7 8 8 8 9 10 11 12 12 13 13 14 15 16 16 17 18 19 19 21 22
19 19 18 17 16 16 16 15 14 13 12 11 10 9 9 8 8 8 8 9 8 9 9 9 9 10 11 12 13 13 14 15 15 16 17 17 18 19 20 21 22 23 24
20 20 19 18 17 17 17 16 15 14 14 13 12 11 10 10 10 10 10 10 10 10 10 10 11 12 13 13 14 15 16 16 17 18 19 20 21 21 23 23 24 25 26
20 20 20 19 18 18 17 17 16 16 15 15 15 13 12 12 11 11 12 12 12 12 12 13 13 14 15 15 16 17 18 19 20 21 22 22 23 24 25 25 26 27 28
20 20 19 19 19 18 18 18 17 16 16 15 15 15 14 14 14 14 14 14 14 14 15 15 16 16 17 17 18 19 20 21 22 23 23 24 25 26 27 28 29 30 30
19 19 19 19 19 19 19 19 18 17 17 16 15 15 15 15 15 15 15 16 16 16 17 17 18 18 18 19 20 21 22 23 23 24 25 26 27 28 30 30 31 32 33
20 20 19 19 19 19 19 19 19 19 18 17 17 16 17 17 17 17 17 18 18 18 18 19 19 20 20 21 22 23 24 24 25 26 27 28 29 30 31 32 33 34 34
19 19 20 19 19 19 20 19 19 20 19 20 19 19 19 19 19 19 19 20 20 20 20 20 21 21 22 23 24 25 26 27 27 28 29 30 31 32 33 34 34 35 36
19 19 20 20 20 20 20 19 20 20 21 21 21 21 21 21 21 21 21 21 22 22 22 23 23 24 25 26 27 27 28 29 30 30 31 32 33 34 35 36 36 37 38
20 19 18 20 21 21 21 20 20 21 21 21 22 22 22 23 23 23 23 24 24 24 25 25 26 26 27 28 29 29 30 31 32 33 34 35 35 36 37 38 38 39 40
20 20 19 20 20 21 21 21 21 21 22 22 23 23 24 24 24 24 25 26 26 26 27 27 28 29 30 30 31 31 32 33 34 35 36 37 37 38 39 40 41 41 42
20 20 20 20 20 20 21 21 21 22 23 23 24 25 25 26 26 26 27 27 28 28 29 30 31 31 32 32 33 34 34 35 36 37 38 39 40 40 41 42 43 44 45
21 21 21 21 22 22 22 22 22 23 23 24 26 26 27 27 27 28 28 29 30 30 31 32 33 33 34 34 34 35 36 37 38 39 40 41 41 42 43 44 45 46 47
21 22 22 22 22 23 24 24 24 25 25 26 27 27 28 28 28 28 29 30 31 32 32 33 34 34 35 35 36 37 38 38 39 40 41 42 43 44 45 46 47 49 49
21 22 23 23 24 25 25 25 25 26 26 26 27 28 28 29 29 30 31 32 33 33 34 35 35 36 36 37 38 39 40 41 41 42 43 44 45 46 47 48 50 50 51
22 22 23 23 23 24 24 24 25 26 26 27 27 28 28 29 30 32 33 33 34 36 36 36 37 37 38 39 40 41 42 43 44 45 46 47 47 48 50 51 52 52 53
23 24 24 24 24 24 25 26 26 27 27 28 28 29 30 31 32 33 34 35 36 37 38 38 39 39 40 41 42 43 44 45 46 47 48 49 50 51 52 53 53 54 55
25 25 26 26 26 26 27 28 29 29 29 29 30 31 31 32 33 34 35 36 36 37 38 39 40 41 42 43 44 45 46 47 49 50 50 51 52 53 54 54 55 56 56
27 27 27 27 28 28 29 29 30 30 31 31 31 32 32 33 34 35 36 37 38 39 39 40 41 42 43 45 46 47 48 49 50 51 52 53 53 54 55 55 56 56 57
28 29 29 29 29 29 30 30 31 32 32 32 33 33 34 35 36 37 38 39 39 40 41 42 43 44 45 46 48 49 50 51 52 52 53 53 54 55 56 56 57 57 58
29 30 30 30 31 31 31 32 32 33 33 33 34 35 36 37 38 39 40 41 41 42 43 44 45 46 47 48 49 50 51 52 53 53 53 54 55 55 56 56 57 57 57

GEFSGL_500_meanwind_168.txt.gz
Wind_Speed
11 11 10 10 9 7 6 5 5 4 4 3 3 2 2 2 2 2 2 2 2 2 2 2 2 3 3 3 3 3 3 3 3 3 3 4 5 6 6 6 7 7 8
13 12 12 10 10 9 8 7 6 6 5 5 4 3 2 1 1 0 0 1 1 1 1 1 2 2 3 3 3 3 4 4 4 5 5 5 6 7 7 8 9 9 10
14 14 13 12 11 11 10 9 8 7 7 6 5 4 4 3 2 2 2 1 1 1 1 1 2 2 3 3 3 4 5 5 6 6 7 8 8 9 10 10 11 11 12
15 15 14 13 13 12 11 11 10 9 8 8 7 6 5 4 4 3 3 3 3 3 2 2 3 3 4 4 4 5 6 7 7 8 9 10 11 11 12 13 13 13 14
16 16 15 15 14 14 13 12 11 10 9 9 8 8 7 6 5 5 5 4 4 4 4 4 5 5 5 5 6 6 7 8 9 10 11 12 12 13 14 14 15 16 16
17 16 16 16 15 15 15 14 12 11 10 9 9 9 8 8 7 7 6 6 6 6 6 6 6 7 7 7 8 8 9 9 10 11 12 13 14 15 16 16 17 18 19
18 18 17 16 16 16 15 15 14 13 12 12 11 11 10 9 9 9 8 8 8 8 8 8 8 8 9 9 10 10 11 11 12 13 14 15 16 17 18 19 19 20 21
19 18 18 17 17 17 16 17 16 15 15 14 13 13 12 12 11 10 10 10 10 10 10 10 10 10 11 11 12 12 13 14 15 16 17 17 18 19 20 21 21 22 23
20 19 19 19 18 17 17 17 17 16 16 15 15 14 14 14 13 12 12 12 11 12 12 12 12 13 13 14 14 15 15 16 17 18 19 20 21 22 23 23 23 24 26
19 20 20 20 19 18 18 18 18 17 17 17 16 16 16 16 15 15 15 14 14 14 14 14 15 15 15 16 16 17 17 18 19 20 21 22 23 24 25 25 26 26 28
18 19 20 19 19 19 19 20 19 18 18 18 18 18 18 17 17 16 16 16 16 16 16 16 16 17 17 18 18 18 19 20 21 22 23 24 25 26 27 28 28 29 30
18 19 20 20 19 18 18 18 19 19 19 19 19 19 18 18 18 18 17 17 18 18 18 18 18 19 19 19 20 20 21 22 23 24 25 26 27 28 29 30 31 31 32
18 19 19 20 19 19 18 18 19 19 19 19 20 20 20 20 20 19 20 20 19 19 20 20 20 21 22 22 22 23 24 25 26 26 27 28 29 30 31 32 33 34 34
19 19 19 19 20 19 19 19 20 20 20 20 20 21 22 22 22 21 21 22 21 21 21 21 22 23 23 23 24 25 26 27 28 28 29 31 32 32 33 34 35 35 35
20 20 20 20 21 21 20 20 20 21 21 21 21 22 22 23 23 23 23 23 22 22 23 23 24 24 25 25 26 27 28 29 30 31 32 33 34 35 36 36 37 37 38
21 21 21 22 22 22 22 22 22 22 22 22 22 23 23 24 24 24 24 24 24 25 25 25 26 27 27 28 29 30 31 31 32 33 34 35 36 37 38 38 39 39 40
21 21 21 21 22 22 22 22 22 22 22 22 24 24 24 24 25 25 26 26 27 27 27 28 28 29 30 31 31 32 32 33 34 35 36 37 38 39 39 40 40 40 41
20 20 21 21 22 22 22 22 23 23 23 23 24 24 24 24 25 26 26 27 28 29 29 30 31 31 32 33 33 34 34 35 35 36 37 38 39 40 40 41 42 43 44
19 20 20 21 21 22 23 23 24 24 25 25 25 25 25 25 26 27 28 28 29 30 31 32 33 33 34 34 35 35 36 36 37 38 39 40 41 42 43 44 44 45 46
20 20 20 21 21 22 23 23 24 25 25 25 25 26 26 26 27 28 29 29 30 31 32 33 33 34 34 35 35 36 37 37 38 39 40 42 43 45 45 46 47 48 49
20 20 21 22 22 22 22 23 23 23 24 25 25 26 27 27 28 29 29 30 30 31 32 33 34 35 35 36 37 38 39 39 40 42 43 44 45 46 47 48 49 50 52
21 21 21 22 22 23 24 24 24 24 25 26 27 28 29 29 29 30 31 31 32 33 34 34 35 36 37 38 39 39 40 41 43 44 45 46 47 48 49 50 51 52 54
21 22 23 23 24 24 24 25 25 26 27 27 28 28 29 29 30 30 31 32 34 34 35 36 37 38 38 39 40 41 42 43 45 46 46 47 49 50 51 52 53 54 54
22 23 24 24 24 25 25 26 27 28 29 29 30 30 30 31 31 32 33 34 35 36 37 37 38 39 40 41 41 42 44 45 46 47 48 50 50 51 52 53 53 54 55
24 24 24 25 25 26 27 27 28 29 30 30 31 32 32 33 34 35 36 36 37 38 39 40 40 40 41 42 43 44 46 47 48 49 50 51 51 52 52 53 54 55 56
25 25 26 27 27 28 28 28 29 30 30 31 32 33 33 34 36 37 38 38 38 39 40 40 41 42 43 44 45 46 47 48 49 50 51 52 52 53 53 54 55 56 56

GEFSGL_500_meanwind_174.txt.gz
Wind_Speed
11 11 11 10 9 9 8 7 7 7 6 5 4 3 3 2 2 2 2 2 2 1 1 1 2 3 3 4 4 3 4 4 3 3 5 5 6 6 7 7 8 8 9
12 12 12 12 10 10 9 9 8 8 7 6 5 5 4 3 3 3 3 3 3 3 3 3 3 3 4 4 4 5 5 4 5 4 5 6 6 7 8 9 10 10 11
13 13 13 13 12 11 11 10 10 9 8 7 7 7 6 5 5 4 4 4 4 4 4 4 5 5 5 5 6 6 6 6 7 8 7 8 8 9 9 10 11 12 13
14 13 14 14 14 13 12 11 11 11 9 9 8 8 7 6 6 6 5 5 6 6 6 6 6 7 7 7 7 8 8 8 9 9 10 10 10 11 11 12 13 13 14
15 14 14 14 15 14 13 12 12 12 11 10 9 9 9 8 8 7 7 7 7 7 7 7 8 8 9 9 9 9 9 9 10 10 11 11 11 11 12 13 14 15 16
15 15 15 15 16 16 15 14 13 13 13 12 11 11 10 10 10 9 9 9 9 8 8 9 9 9 10 10 10 10 11 11 11 12 12 13 13 14 15 16 16 17 18
16 16 16 16 16 16 16 15 15 14 14 13 13 13 12 11 11 11 11 11 10 10 10 10 11 11 11 11 12 12 13 13 13 13 14 15 16 16 17 18 18 19 20
16 16 17 17 17 17 16 16 15 15 15 15 15 14 14 13 13 13 13 13 12 12 12 12 13 13 14 14 14 15 15 15 15 16 17 17 18 18 19 20 20 21 22
17 16 17 18 18 17 17 17 17 16 16 15 15 15 15 15 15 15 15 14 14 15 15 15 16 16 16 16 16 17 17 17 17 18 19 19 20 21 21 22 22 23 24
18 18 18 18 19 19 19 18 18 17 17 17 17 17 17 17 17 17 17 17 17 17 17 17 17 17 17 17 17 17 18 19 19 20 20 21 22 22 23 24 24 25 26
17 18 18 19 19 20 19 19 19 18 18 18 18 18 17 17 17 17 17 18 18 18 18 18 19 19 19 19 19 19 20 21 21 22 22 23 24 25 25 26 27 28 29
17 18 18 18 18 19 19 19 19 20 20 19 19 19 18 19 19 19 19 19 19 19 20 20 20 20 20 21 21 22 22 23 23 23 24 25 26 27 27 28 29 30 31
17 18 18 18 18 18 18 18 18 19 19 20 19 19 20 20 20 20 20 20 21 21 21 21 22 21 21 22 23 23 24 24 25 25 26 27 28 28 29 29 31 32 33
18 18 18 17 18 19 18 19 19 19 20 20 20 20 20 21 21 21 21 21 22 22 22 22 22 23 23 24 24 25 25 26 27 28 28 29 30 31 31 32 34 35 36
19 18 18 18 19 20 19 20 20 20 20 21 21 22 22 22 22 22 22 23 23 23 24 24 24 25 26 26 26 27 27 28 29 30 30 31 32 33 34 35 36 38 38
19 19 19 19 20 21 21 21 21 21 21 21 22 22 22 23 23 24 24 24 25 26 26 26 27 27 27 28 28 29 29 30 31 32 32 33 34 36 37 38 39 39 40
20 20 21 20 20 21 22 22 22 22 22 22 22 22 23 24 24 25 25 25 26 27 28 28 29 29 30 30 30 31 32 33 33 34 35 36 37 38 38 39 39 40 41
20 21 21 22 22 22 22 23 23 24 24 23 24 24 24 25 25 25 26 26 27 28 29 30 30 31 31 31 32 33 34 35 36 36 37 37 38 39 39 40 41 42 43
20 21 21 22 22 22 23 23 23 24 24 24 24 25 25 25 26 26 27 27 28 29 29 30 30 30 31 32 34 35 36 36 36 37 38 38 39 40 41 42 43 44 45
21 21 22 22 22 22 23 23 23 23 23 24 25 25 25 26 26 27 27 27 28 29 30 30 31 32 33 34 35 36 36 37 38 39 40 41 41 42 43 44 45 46 47
21 21 22 23 23 23 23 23 23 23 24 24 25 26 26 27 27 27 28 28 29 30 31 31 32 33 34 35 36 37 38 39 40 41 42 42 43 44 45 46 47 47 48
21 21 21 22 24 24 24 24 24 24 25 25 26 27 28 28 28 29 30 30 32 32 33 34 34 35 36 37 38 39 40 41 42 42 43 43 44 45 46 47 48 48 49
21 21 21 22 22 23 23 24 24 24 25 26 27 28 29 29 30 31 31 32 33 33 34 35 35 36 37 39 40 41 41 42 42 43 43 44 45 47 47 48 49 49 50
22 22 22 22 22 23 23 24 25 26 27 28 28 29 30 31 32 33 33 34 34 35 35 36 37 38 39 40 41 42 42 42 43 44 45 46 47 48 49 49 50 51 52
22 22 23 23 24 24 25 25 26 28 28 29 29 30 31 32 33 33 34 35 35 36 37 38 38 39 40 41 42 42 43 43 44 46 46 47 48 49 50 50 51 52 53
24 24 25 25 25 26 27 27 27 28 28 28 29 31 32 32 33 33 34 35 35 36 37 38 38 40 41 42 43 44 45 45 46 47 48 48 49 50 50 51 51 52 53

GEFSGL_500_meanwind_180.txt.gz
Wind_Speed
12 12 12 11 11 10 9 8 7 7 6 5 5 4 4 4 4 4 3 3 2 2 2 2 2 3 3 4 4 4 4 4 4 5 6 6 6 6 7 8 9 10 10
13 12 12 12 12 11 10 9 9 8 7 7 6 6 5 5 5 4 4 4 3 4 4 4 3 4 4 4 4 4 5 5 6 6 7 7 7 7 9 9 10 10 11
13 12 12 12 12 12 12 10 10 9 8 8 7 7 7 6 6 6 5 5 5 5 5 5 5 5 5 5 6 6 6 7 7 7 8 8 8 9 10 10 11 12 13
14 14 14 13 13 13 12 12 11 10 10 9 9 8 7 7 7 7 6 6 6 6 6 6 6 7 7 7 8 8 8 9 9 9 10 10 10 10 10 11 12 13 14
15 15 15 15 14 14 13 13 12 11 10 10 10 9 9 8 8 8 8 8 7 7 7 7 8 8 8 8 9 9 9 10 10 11 11 12 12 12 13 13 14 15 16
15 15 15 16 15 15 15 14 13 12 12 11 11 11 11 10 10 10 10 10 9 9 9 9 9 9 9 10 10 10 11 11 11 12 12 13 13 14 14 15 17 18 19
15 15 15 16 16 16 16 15 14 13 13 13 12 12 13 12 12 12 12 11 11 11 11 11 11 11 11 11 12 12 12 12 13 13 14 14 15 15 16 18 18 19 20
14 15 15 16 16 17 17 16 15 14 14 14 14 14 14 14 14 14 14 13 13 13 12 12 12 12 12 13 13 14 14 14 15 15 16 16 17 17 18 19 20 21 22
15 15 15 16 16 16 16 17 16 15 15 15 15 15 15 15 15 15 15 14 14 14 13 13 14 14 15 15 15 15 15 16 17 17 17 18 19 19 20 21 22 23 23
15 16 16 16 17 17 17 17 17 17 16 16 16 16 16 16 16 15 15 15 15 15 15 16 16 16 16 17 17 17 17 18 18 18 19 20 21 21 22 23 23 24 25
16 16 17 17 18 19 18 17 18 18 17 17 17 17 17 16 16 16 16 16 16 16 17 17 17 17 18 18 18 18 19 18 19 20 20 21 22 23 24 25 25 26 28
16 16 16 16 17 18 18 18 17 17 17 17 17 17 17 17 17 16 16 17 17 17 18 19 19 19 19 19 19 19 20 20 21 22 23 24 25 26 26 27 28 29 31
16 16 16 16 18 18 18 19 18 18 18 18 18 17 18 18 18 18 18 18 18 19 19 20 20 20 20 20 20 21 22 22 23 24 25 26 27 28 29 30 31 32 33
16 16 15 16 16 17 19 19 19 20 19 19 18 19 19 19 18 18 19 19 19 20 20 21 21 21 22 22 23 23 24 25 25 26 27 28 29 30 32 32 33 34 35
16 16 16 16 16 17 18 18 18 19 19 20 20 20 20 20 20 20 19 20 20 21 22 22 23 23 24 24 25 26 26 27 28 29 30 31 32 33 34 35 36 36 37
17 17 17 17 17 18 18 18 19 19 20 20 20 20 20 20 21 21 21 22 22 23 23 24 25 25 26 27 28 28 29 29 31 32 33 33 34 35 36 37 37 38 38
19 19 19 19 19 19 19 19 20 20 20 21 21 21 21 21 22 23 24 24 24 24 24 25 26 26 27 28 29 30 31 31 33 34 34 35 36 37 38 38 39 40 40
20 20 20 20 20 20 20 20 20 20 21 21 21 22 22 22 23 24 24 25 25 25 26 26 27 27 28 28 29 30 31 32 33 34 35 36 37 38 38 39 40 41 42
20 20 20 20 21 21 21 21 21 21 21 22 22 23 23 24 24 24 24 25 25 26 27 28 28 28 28 29 30 31 32 32 34 35 35 36 37 38 39 40 41 43 43
21 21 21 21 21 21 21 21 21 21 21 22 22 23 24 24 25 25 26 26 26 27 28 28 28 28 29 29 30 31 32 33 34 35 36 37 38 39 40 41 42 44 44
22 22 21 21 21 21 21 21 21 21 22 22 22 23 24 25 25 25 26 26 27 27 27 28 28 28 28 29 30 32 33 34 35 36 37 38 39 40 42 43 43 44 45
23 23 23 22 22 22 22 22 22 22 22 23 23 23 24 24 25 25 25 26 26 27 28 29 29 29 30 30 31 33 34 36 37 38 39 40 40 41 42 43 44 45 46
22 22 22 22 22 23 23 23 23 23 23 23 24 24 24 25 25 25 26 27 28 28 29 29 30 30 31 32 33 35 36 37 38 39 40 41 42 43 44 45 46 47 48
21 22 22 22 22 22 22 22 23 23 24 24 24 24 24 25 26 27 28 28 29 30 31 31 31 32 33 34 36 37 37 38 39 40 41 42 43 44 45 46 47 48 49
21 21 22 22 22 23 23 23 23 24 24 25 25 25 26 27 28 28 29 29 30 31 32 32 33 34 36 36 38 39 39 40 41 41 42 43 44 45 46 47 48 49 50
21 21 22 23 23 24 24 24 25 25 25 26 27 27 28 29 29 29 30 30 31 31 32 34 35 36 37 38 39 39 41 42 43 43 44 45 46 47 47 48 49 50 50

GEFSGL_500_meanwind_186.txt.gz
Wind_Speed
10 10 9 8 8 7 7 6 6 6 5 5 4 4 4 4 3 3 3 3 4 4 4 5 5 6 5 6 6 7 7 7 8 8 8 7 8 8 9 9 9 10 10
11 11 11 10 9 8 8 8 7 6 6 6 5 6 5 5 5 5 4 4 4 5 5 5 6 6 6 6 6 7 8 8 8 9 8 8 8 9 10 10 11 11 12
12 12 11 11 10 10 9 8 8 7 7 7 6 6 6 6 6 6 6 5 5 6 6 6 7 7 7 7 7 7 8 9 9 9 10 9 9 10 11 12 12 13 13
12 13 12 12 11 11 10 9 9 9 8 8 7 7 7 7 7 7 7 7 7 7 7 7 7 7 8 8 8 8 9 9 10 10 10 10 10 11 12 12 12 13 13
13 13 13 12 12 12 11 10 10 9 9 9 9 8 8 8 8 9 9 8 8 8 8 8 9 9 10 10 10 10 10 11 11 11 11 12 12 13 13 14 13 14 15
13 12 13 13 13 12 12 12 11 11 11 10 10 10 10 9 10 10 10 10 10 10 10 11 11 11 11 11 12 12 12 12 13 13 13 13 14 14 15 15 15 16 17
13 13 12 13 12 13 13 13 12 11 11 11 11 11 11 11 11 11 11 12 12 12 13 13 13 13 13 13 13 13 13 14 14 14 15 15 16 16 16 16 17 18 18
13 13 12 13 14 14 14 14 13 13 13 13 13 13 13 13 13 13 13 13 13 14 14 14 14 14 15 15 15 15 15 16 15 15 16 16 17 17 17 18 18 19 20
13 13 13 14 14 14 15 15 14 14 14 14 14 14 14 14 14 14 14 14 14 15 15 15 15 15 16 16 16 16 17 16 16 16 16 17 18 18 19 20 21 21 22
15 14 13 13 14 14 14 15 15 15 15 14 15 15 16 16 15 15 15 15 15 15 15 16 16 16 17 17 17 17 17 17 17 18 19 19 20 20 21 22 22 23 24
15 15 15 14 14 14 14 14 14 15 14 14 15 15 16 16 16 16 15 16 16 16 16 17 17 17 18 18 18 18 19 19 19 20 20 21 22 23 23 24 24 25 26
16 16 16 16 15 15 15 15 15 16 15 15 15 15 15 15 15 15 16 17 17 17 18 18 18 19 19 20 20 20 21 21 22 22 23 23 24 24 25 26 26 27 28
18 18 18 17 16 16 16 15 15 15 15 16 16 16 16 16 16 16 17 17 18 18 19 20 20 20 20 21 22 22 23 24 24 25 25 26 26 27 28 28 29 31 32
17 17 18 17 16 17 17 16 16 16 16 16 16 17 17 17 17 18 18 18 19 19 20 21 21 22 22 22 23 24 25 25 26 27 27 27 28 28 29 30 32 33 34
17 17 17 17 17 17 18 17 17 17 17 17 17 17 17 18 18 19 19 20 21 21 21 22 22 23 24 24 25 25 26 26 27 28 28 28 29 31 32 33 34 35 36
18 18 18 17 17 17 17 17 17 17 17 18 18 18 19 19 20 20 21 21 22 23 23 23 24 24 25 26 26 26 27 28 28 29 30 31 32 33 34 35 35 36 36
19 19 18 18 18 18 17 17 17 17 18 18 18 19 20 21 21 22 23 23 24 24 25 25 25 25 26 26 27 27 28 29 30 31 32 33 34 35 35 36 36 36 37
21 21 20 20 19 19 19 19 18 18 18 19 19 20 20 21 22 22 23 24 24 25 26 27 27 27 27 27 27 28 30 31 31 32 33 34 35 35 35 36 36 37 38
22 22 22 22 21 21 20 20 20 20 20 20 21 21 22 22 22 23 23 24 25 26 27 28 28 28 28 29 29 30 31 31 32 33 33 34 35 35 36 36 37 38 39
23 23 23 23 23 23 22 22 22 22 21 22 22 22 23 23 23 23 24 24 25 25 26 26 27 27 28 29 29 30 31 32 33 33 33 34 35 35 36 37 38 39 40
24 24 23 23 24 23 23 23 23 23 23 24 23 23 24 24 24 24 25 25 25 25 25 26 27 28 28 29 30 31 32 33 33 33 34 34 35 36 37 38 39 40 41
22 22 23 23 24 24 23 23 24 24 24 24 24 24 24 24 24 24 24 24 24 24 26 27 28 29 30 31 32 33 33 34 34 34 35 36 36 37 39 40 41 42 43
23 23 23 23 23 24 24 24 24 24 24 24 24 24 24 24 24 24 25 26 26 27 28 29 30 31 32 33 33 34 34 35 36 36 37 38 39 40 41 42 43 44 44
22 22 22 23 23 23 24 24 24 24 24 24 24 24 24 24 25 26 27 28 28 28 29 30 31 32 33 34 34 35 36 37 38 38 39 40 41 42 43 43 45 46 47
22 21 21 22 22 22 23 24 24 24 24 24 24 25 25 26 26 27 28 29 29 30 31 31 32 33 34 35 36 37 38 39 40 41 42 43 43 44 45 46 47 47 47
21 21 21 21 22 22 23 23 24 24 25 25 26 27 27 27 27 28 29 30 31 32 32 33 34 34 36 37 37 38 39 41 42 43 44 44 45 45 46 46 46 47 47

GEFSGL_500_meanwind_192.txt.gz
Wind_Speed
10 9 9 9 8 7 7 6 6 5 5 5 4 4 3 3 3 2 2 2 3 3 3 3 4 4 4 5 5 5 6 6 7 7 6 7 7 8 8 9 9 10 10
11 11 11 10 10 9 8 8 7 6 6 6 5 5 4 4 4 4 4 4 4 4 4 4 5 5 5 6 6 6 6 6 7 7 8 8 8 9 9 10 11 11 12
12 11 12 12 11 11 10 10 9 8 7 7 7 6 6 6 5 5 5 5 5 5 5 5 5 6 6 6 7 7 7 8 9 9 9 9 10 10 10 11 11 12 12
12 12 12 13 13 12 12 11 10 9 8 8 8 8 8 8 7 7 7 7 6 6 6 6 6 6 6 7 8 9 9 9 9 10 10 10 11 12 12 12 12 13 13
13 13 13 13 13 13 13 12 12 10 9 9 9 9 8 8 8 8 8 8 7 7 7 7 8 8 9 9 10 10 10 10 11 11 12 12 13 13 13 13 13 14 15
13 13 13 13 13 14 13 13 13 12 11 10 10 10 10 9 8 8 9 9 9 9 10 10 10 10 11 11 11 11 12 12 13 13 14 14 14 14 14 15 15 15 16
13 13 13 13 14 14 14 14 14 13 13 12 10 10 10 10 9 10 10 10 11 11 11 11 11 12 12 13 13 13 13 13 14 14 15 15 15 16 16 16 17 17 18
14 14 14 14 14 14 15 15 15 15 14 13 12 11 11 11 11 11 12 12 12 12 12 13 13 13 13 13 13 14 14 15 15 15 16 16 16 16 17 17 18 19 20
15 15 16 15 15 14 15 15 15 15 16 15 14 13 13 13 12 12 13 13 13 13 13 13 13 14 14 14 14 15 15 16 16 17 17 18 18 18 18 19 20 21 22
16 16 17 17 16 15 16 16 15 15 15 15 15 15 14 14 14 13 13 14 13 13 14 14 14 15 16 16 16 16 17 18 18 19 19 20 20 20 21 21 22 23 24
18 17 17 17 17 17 17 17 16 16 16 16 15 16 15 15 15 14 14 14 15 15 15 16 16 17 17 17 18 18 19 20 20 21 22 22 23 22 23 23 24 25 25
19 18 18 18 18 18 18 18 17 17 16 16 16 16 16 16 16 16 16 16 16 16 16 16 16 17 18 18 20 20 21 22 22 23 24 24 24 24 24 25 26 27 28
19 19 19 18 19 19 19 18 18 17 17 18 17 17 17 17 17 17 17 17 17 18 18 18 18 19 19 20 21 22 22 22 23 24 25 25 25 26 27 28 28 29 30
20 20 19 19 19 18 18 18 18 18 18 18 18 18 18 17 18 18 18 18 18 19 19 20 20 20 21 21 22 22 23 23 24 25 26 27 27 28 29 29 30 32 33
20 20 19 19 19 19 19 19 19 19 19 19 19 19 19 18 18 18 18 19 20 21 21 21 21 21 22 23 23 24 25 26 27 28 28 28 29 30 31 31 33 34 34
21 20 20 20 20 20 20 19 19 20 20 20 20 19 19 20 20 20 20 21 21 21 22 22 23 24 24 25 25 26 27 28 28 29 30 30 30 31 32 33 34 35 35
22 22 22 22 21 21 20 19 19 20 20 20 20 20 20 20 21 21 21 21 22 22 22 23 24 25 25 26 26 28 29 29 30 30 30 30 31 32 33 34 35 35 35
23 22 22 22 22 22 21 21 21 21 21 21 21 21 21 21 21 22 22 23 23 23 23 24 25 25 26 27 28 29 30 30 30 30 31 31 31 32 34 35 35 36 36
24 23 23 23 23 22 22 22 22 22 22 22 22 22 22 22 22 23 24 24 24 24 25 25 26 26 27 28 29 29 29 29 30 31 31 32 33 34 35 36 36 37 37
23 23 23 24 23 23 22 22 22 23 23 23 22 22 23 23 23 24 24 24 25 25 26 26 27 28 28 28 29 29 30 30 31 32 33 34 35 35 36 37 37 37 38
23 23 23 24 24 23 23 23 23 23 23 23 23 23 24 24 24 25 25 25 25 26 26 27 27 28 28 29 29 29 30 31 32 33 34 35 36 37 37 37 38 39 40
23 23 22 23 23 24 23 23 22 22 23 24 24 24 24 24 24 25 25 26 26 26 27 27 28 28 29 30 30 31 32 33 34 35 36 36 37 37 37 38 40 41 42
24 24 23 23 23 24 23 23 23 23 23 24 24 24 24 25 25 25 25 26 26 26 27 28 28 29 30 30 31 32 33 34 35 36 37 38 38 39 39 40 42 42 43
24 24 24 23 23 23 23 23 23 23 23 24 24 24 24 24 25 25 26 26 27 27 28 29 30 30 30 31 32 33 34 35 36 37 38 39 39 40 41 41 42 43 44
24 23 23 23 23 22 22 22 22 23 23 23 24 25 25 25 25 25 26 26 27 28 29 30 30 31 32 33 34 35 36 37 38 39 40 40 41 41 42 43 43 44 44
23 23 23 23 23 22 22 22 22 22 23 23 23 24 25 25 26 27 27 27 28 29 30 31 32 33 33 34 35 36 37 39 40 40 42 42 42 42 42 43 43 43 44

GEFSGL_500_meanwind_198.txt.gz
Wind_Speed
9 9 8 8 8 8 8 8 7 6 6 6 5 5 5 5 5 5 4 4 4 5 5 5 5 5 5 5 5 5 6 6 7 7 7 7 8 9 9 9 10 11 11
11 10 10 9 9 9 9 9 9 8 7 7 7 6 6 6 6 5 5 5 5 5 5 5 5 5 6 6 6 7 7 8 8 8 8 8 9 9 10 11 11 12 13
12 12 11 11 10 10 11 11 10 9 9 8 8 8 7 7 7 7 6 6 6 6 6 6 6 6 7 7 7 7 8 9 9 9 9 10 10 11 12 13 13 13 13
13 12 12 12 11 11 11 12 11 10 10 9 9 9 9 8 8 8 8 7 7 7 7 7 7 7 7 8 8 8 9 10 10 11 11 12 12 13 13 14 14 14 14
13 13 13 13 12 12 12 12 12 12 11 10 10 10 10 10 9 9 8 8 8 8 8 8 9 9 9 9 10 10 11 11 11 12 12 13 13 14 14 15 15 15 16
14 13 13 14 14 14 14 13 14 13 13 12 12 11 10 10 10 9 9 9 9 9 10 10 10 10 11 11 12 12 12 12 12 13 13 13 13 14 15 15 16 16 17
15 15 15 14 14 15 15 15 15 14 14 14 13 13 12 12 11 11 11 11 11 11 11 11 12 11 12 13 13 13 13 13 14 14 14 14 15 16 16 17 18 18 19
16 16 16 16 16 15 16 16 16 16 16 15 15 14 13 13 13 13 13 12 12 12 12 12 12 13 13 13 14 14 14 15 15 15 16 17 17 18 19 19 20 21 21
18 18 18 17 17 17 17 18 17 17 16 16 16 15 15 14 14 14 14 13 13 13 14 14 14 14 15 15 15 15 16 16 17 17 18 19 20 20 21 22 22 23 23
19 19 19 19 18 19 19 19 19 19 18 18 17 17 16 16 16 16 15 14 14 14 15 15 16 16 16 16 17 17 17 18 19 19 20 21 22 22 23 23 24 25 25
20 19 20 19 19 19 19 19 20 19 19 18 18 17 17 17 17 16 16 16 16 16 16 16 17 17 18 18 18 18 19 19 20 20 21 22 24 24 25 25 26 26 26
21 20 20 20 21 20 20 19 19 20 20 19 19 18 18 18 17 17 17 17 17 18 18 18 18 18 18 19 19 20 21 21 22 23 24 25 25 26 26 26 27 28 28
21 21 21 21 22 22 21 21 20 20 20 21 20 20 19 19 18 19 18 18 19 19 19 19 19 20 20 20 21 22 22 23 23 24 25 26 27 27 27 28 29 29 29
22 22 23 23 23 23 22 22 21 21 22 22 21 21 21 21 21 21 21 20 20 20 20 20 21 21 21 22 22 23 23 24 24 25 26 27 27 28 28 29 29 30 30
23 23 23 22 22 22 21 21 21 21 22 22 22 21 22 22 22 22 21 21 22 22 22 22 22 22 22 23 24 24 24 25 26 27 28 28 29 29 30 30 30 31 31
23 23 23 22 22 22 22 21 21 21 21 22 22 23 22 22 22 22 22 22 22 22 23 23 23 24 24 24 24 25 26 27 28 28 29 29 30 30 30 31 31 32 32
22 22 23 23 22 22 22 22 21 21 21 22 23 22 22 22 22 22 22 22 23 23 23 23 24 24 25 25 25 26 27 28 28 28 29 29 30 30 31 31 32 32 33
22 22 23 22 22 23 23 23 22 22 22 22 23 23 23 23 23 24 24 24 24 24 24 24 24 24 25 26 26 26 27 28 28 28 28 29 30 30 31 32 32 33 34
22 22 23 23 22 23 24 24 23 23 22 22 22 23 23 23 23 23 24 24 25 25 25 25 25 25 25 26 26 27 27 27 27 28 28 29 30 31 32 33 34 35 36
23 23 23 23 23 24 24 24 23 23 22 22 22 22 22 23 23 24 24 25 25 25 25 25 26 27 27 27 27 28 28 28 28 29 30 31 32 32 34 35 36 37 37
24 23 23 23 23 23 23 23 22 22 22 21 21 22 22 22 23 23 24 24 25 25 25 25 26 27 28 28 28 28 29 29 30 31 31 33 34 35 36 37 37 38 39
24 24 23 23 23 23 22 22 22 22 22 22 22 22 22 22 23 24 24 25 25 25 26 26 26 27 28 29 29 30 29 30 31 32 33 34 36 36 37 39 39 40 40
24 24 24 23 23 23 22 22 22 22 22 23 22 22 22 23 23 23 24 24 25 25 26 26 27 27 28 29 30 31 31 32 33 34 35 36 36 37 38 39 40 40 41
24 24 23 24 24 23 22 22 22 22 23 23 23 23 23 23 23 23 23 24 25 26 26 27 28 29 30 31 31 32 32 34 35 35 36 37 38 39 40 40 40 41 42
24 24 24 23 23 23 23 23 22 22 23 23 23 23 23 23 24 24 24 24 25 26 27 28 29 30 30 31 31 33 33 35 36 37 38 38 39 40 40 40 41 41 42
24 24 25 24 23 23 24 24 23 23 24 24 24 24 24 24 24 24 25 25 26 27 28 29 30 31 31 31 32 34 35 36 37 37 38 39 39 39 40 40 41 41 42